Flight Track Log - Related Links

Times and Time Zones

All times are in EDT time to prevent confusion due to time zone crossing. See the N8393X flight status page for this flight to view local times or setup timezone preferences in your user account.

Time Position Orientation Groundspeed Altitude Reporting Facility
EDT Latitude Longitude Course Direction KTS MPH feet Rate Location/Type
Fri 12:12:33 PM 38.2833 -85.6167 350° North 113 130 2,500  Level Louisville TRACON
Fri 12:14:00 PM 38.3192 -85.6453 328° Northwest  Level FlightAware Approximate
Fri 12:15:03 PM 38.3667 -85.6167 328° Northwest 116 133 3,500  Level Louisville TRACON
Fri 12:15:54 PM 38.3914 -85.6306 336° Northwest 101 116 3,700 265 Climbing Indianapolis Center
Fri 12:16:56 PM 38.4122 -85.6717 303° West 133 153 4,000 339 Climbing Indianapolis Center
Fri 12:17:00 PM 38.4005 -85.7014 350° North  Level Estimated
Fri 12:17:58 PM 38.4292 -85.7142 297° West 134 154 4,400  Level Indianapolis Center
Fri 12:18:00 PM 38.4293 -85.7077 350° North  Level Estimated
Fri 12:18:59 PM 38.4464 -85.7547 298° West 133 153 4,800  Level Indianapolis Center
Fri 12:20:02 PM 38.4622 -85.7953 297° West 129 148 5,300 476 Climbing Indianapolis Center
Fri 12:21:05 PM 38.4842 -85.8389 303° West 123 142 5,800 435 Climbing Indianapolis Center
Fri 12:22:06 PM 38.5056 -85.8739 308° West 124 143 6,200 439 Climbing Indianapolis Center
Fri 12:23:08 PM 38.5328 -85.9033 320° Northwest 126 145 6,700 537 Climbing Indianapolis Center
Fri 12:24:09 PM 38.5553 -85.9369 311° West 125 144 7,300 545 Climbing Indianapolis Center
Fri 12:25:09 PM 38.5708 -85.9767 297° West 125 144 7,800 435 Climbing Indianapolis Center
Fri 12:26:13 PM 38.5911 -86.0150 304° West 127 146 8,200 339 Climbing Indianapolis Center
Fri 12:27:13 PM 38.6119 -86.0517 306° West 128 147 8,500 194 Climbing Indianapolis Center
Fri 12:28:17 PM 38.6297 -86.0936 298° West 131 151 8,600 48 Climbing Indianapolis Center
Fri 12:29:17 PM 38.6661 -86.1236 327° Northwest 134 154 8,600 -50 Level Indianapolis Center
Fri 12:30:18 PM 38.6975 -86.1081 21° North 126 145 8,500  Descending Indianapolis Center
Fri 12:31:22 PM 38.7261 -86.0814 36° Northeast 126 145 8,600 48 Climbing Indianapolis Center
Fri 12:32:24 PM 38.7569 -86.0603 28° Northeast 125 144 8,600  Level Indianapolis Center
Fri 12:33:24 PM 38.7892 -86.0461 19° North 123 142 8,600 50 Level Indianapolis Center
Fri 12:34:24 PM 38.8233 -86.0381 10° North 124 143 8,700  Climbing Indianapolis Center
Fri 12:35:29 PM 38.8558 -86.0250 17° North 123 142 8,600 -48 Descending Indianapolis Center
Fri 12:36:29 PM 38.8906 -86.0142 14° North 124 143 8,600 50 Level Indianapolis Center
Fri 12:37:30 PM 38.9244 -86.0056 11° North 125 144 8,700 48 Climbing Indianapolis Center
Fri 12:38:33 PM 38.9642 -85.9925 14° North 123 142 8,700 -48 Level Indianapolis Center
Fri 12:39:35 PM 38.9967 -85.9794 17° North 123 142 8,600  Descending Indianapolis Center
Fri 12:40:35 PM 39.0292 -85.9619 23° Northeast 123 142 8,700 48 Climbing Indianapolis Center
Fri 12:41:39 PM 39.0636 -85.9536 11° North 125 144 8,700  Level Indianapolis Center
Fri 12:42:40 PM 39.0981 -85.9528 North 125 144 8,700 -50 Level Indianapolis Center
Fri 12:43:40 PM 39.1325 -85.9447 10° North 126 145 8,600 -48 Descending Indianapolis Center
Fri 12:44:44 PM 39.1750 -85.9325 13° North 130 150 8,600 48 Level Indianapolis Center
Fri 12:45:45 PM 39.2094 -85.9294 North 127 146 8,700 -49 Climbing Indianapolis Center
Fri 12:46:46 PM 39.2447 -85.9272 North 127 146 8,500 -242 Descending Indianapolis Center
Fri 12:47:49 PM 39.2828 -85.9300 357° North 135 155 8,200 -432 Descending Indianapolis Center
Fri 12:48:51 PM 39.3217 -85.9194 12° North 141 162 7,600 -435 Descending Indianapolis Center
Fri 12:49:53 PM 39.3622 -85.9228 356° North 145 167 7,300 -344 Descending Indianapolis Center
Fri 12:50:53 PM 39.4072 -85.9167 North 138 159 6,900 -443 Descending Indianapolis Center
Fri 12:51:55 PM 39.4475 -85.9172 359° North 142 163 6,400 -476 Descending Indianapolis Center
Fri 12:52:59 PM 39.4892 -85.9194 358° North 149 171 5,900 -532 Descending Indianapolis Center
Fri 12:53:59 PM 39.5292 -85.9286 350° North 149 171 5,300 -634 Descending Indianapolis Center
Fri 12:55:02 PM 39.5711 -85.9372 351° North 150 173 4,600 -677 Descending Indianapolis Center
Fri 12:56:03 PM 39.6136 -85.9553 342° North 156 180 3,900 -443 Descending Indianapolis Center
Fri 12:57:04 PM 39.6597 -85.9761 341° North 152 175 3,700 -290 Descending Indianapolis Center
Fri 12:58:07 PM 39.6964 -85.9878 346° North 150 173 3,300 -341 Descending Indianapolis Center
Fri 12:59:07 PM 39.7328 -85.9742 16° North 144 166 3,000 -145 Descending Indianapolis Center
Fri 01:00:11 PM 39.7681 -85.9472 30° Northeast 138 159 3,000  Level Indianapolis Center
Fri 01:02:00 PM 39.8258 -85.9849 333° Northwest  Level FlightAware Approximate
Fri 01:09:00 PM 39.9333 -86.0333 North  Level FlightAware Approximate
Fri 01:10:00 PM 39.9352 -86.0449 North  Level Estimated

Login

Don't have an account? Register now (free) for customized features, flight alerts, and more!